Location: C.E.K. Mees Observatory
(42.7003°N, 77.4088°W)
Time: 08:27:54
(UTC-05:00)

Vanguard 3 - All Passes

Search period start: 11 December 2017 00:00
Search period end: 21 December 2017 00:00
Orbit: 509 x 3263 km, 33.3° (Epoch: 10 December)

Date Brightness Start Highest point End Pass type
(mag) Time Alt. Az. Time Alt. Az. Time Alt. Az.
11 Dec - 14:08:08 10° SW 14:10:51 19° S 14:13:43 10° ESE daylight
11 Dec - 16:18:28 10° WSW 16:21:40 22° S 16:25:48 10° SE daylight
11 Dec - 18:30:21 10° SW 18:33:06 14° SSW 18:36:27 10° S visible
12 Dec - 12:55:27 10° SSW 12:57:46 15° SSE 12:59:57 10° SE daylight
12 Dec - 15:05:35 10° SW 15:08:31 22° S 15:11:52 10° SE daylight
12 Dec - 17:16:43 10° SW 17:19:33 16° SSW 17:23:06 10° SSE visible
13 Dec - 11:43:07 10° S 11:44:33 11° SSE 11:45:53 10° SE daylight
13 Dec - 13:52:34 10° SW 13:55:26 20° S 13:58:17 10° SE daylight
13 Dec - 16:03:31 10° SW 16:06:15 18° S 16:09:33 10° SE daylight
14 Dec - 12:39:22 10° SW 12:42:20 18° S 12:44:57 10° SE daylight
14 Dec - 14:50:20 10° SW 14:53:07 20° S 14:56:06 10° SE daylight
14 Dec - 17:02:32 10° SW 17:04:06 12° SSW 17:05:51 10° S visible
15 Dec - 11:26:02 10° SSW 11:29:06 15° SSE 11:31:39 10° SE daylight
15 Dec - 13:36:58 10° SW 13:40:03 21° S 13:42:54 10° SE daylight
15 Dec - 15:48:39 10° SW 15:50:50 15° SSW 15:53:16 10° SSE daylight
16 Dec - 10:12:54 10° S 10:15:40 13° SSE 10:17:59 10° SE daylight
16 Dec - 12:23:17 10° SW 12:26:56 21° S 12:29:55 10° SE daylight
16 Dec - 14:35:03 10° SW 14:37:42 18° S 14:40:24 10° SE daylight
17 Dec - 11:09:20 10° SW 11:13:40 20° S 11:16:57 10° ESE daylight
17 Dec - 13:21:17 10° WSW 13:24:39 22° S 13:27:36 10° SE daylight
17 Dec - 15:34:01 10° SW 15:35:22 12° SSW 15:36:46 10° S daylight
18 Dec - 09:55:20 10° SSW 10:00:10 18° SSE 10:03:48 10° SE daylight
18 Dec - 12:07:10 10° SW 12:11:32 25° S 12:14:50 10° ESE daylight
18 Dec - 14:19:42 10° WSW 14:22:16 17° SSW 14:24:44 10° SSE daylight
19 Dec - 08:41:40 10° SSW 08:46:23 15° SSE 08:50:05 10° SE daylight
19 Dec - 10:52:43 10° SW 10:58:13 25° S 11:02:04 10° ESE daylight
19 Dec - 13:05:30 10° WSW 13:09:14 23° S 13:12:18 10° SE daylight
20 Dec - 07:29:30 10° S 07:32:17 11° SSE 07:34:44 10° SE daylight
20 Dec - 09:38:05 10° SW 09:44:39 23° SSE 09:49:09 10° ESE daylight
20 Dec - 11:50:59 10° WSW 11:56:06 28° S 11:59:45 10° ESE daylight
20 Dec - 14:04:17 10° WSW 14:06:48 16° SSW 14:09:06 10° SSE daylight
